Home   Weather   Bielefeld   Past weeks

Flag for Germany Past Weather in Bielefeld, North Rhine-Westphalia, Germany — Yesterday and Last 2 Weeks

52 °F

Light rain. Fog.

Feels Like: 49 °F
Forecast: 45 / 53 °F
Wind: 9 mph from West

Location: Paderborn / Lippstadt

Current Time: Oct 28, 2016 at 11:36:17 PM

Latest Report: Oct 28, 2016 at 10:50 PM

Visibility: 2 mi

Pressure: 30.51 "Hg

Humidity: 94%

Dew Point: 50 °F

Location of BielefeldLocation

Past Weather in Bielefeld — Graph


Bielefeld Temperature Yesterday

Maximum temperature yesterday: 55 °F (at 12:50 PM)
Minimum temperature yesterday: 37 °F (at 8:50 PM)
Average temperature yesterday: 51 °F

High & Low Weather Summary for the Past Weeks

High66 °F (Oct 16, 2:50 PM)100% (Oct 21, 5:20 AM)30.51 "Hg (Oct 21, 5:20 AM)
Low37 °F (Oct 23, 6:50 AM)49% (Oct 16, 2:50 PM)29.68 "Hg (Oct 15, 1:50 AM)
Average48 °F83%30.06 "Hg
* Reported Oct 13 10:20 PM — Oct 28 10:20 PM, Bielefeld, Weather by CustomWeather, © 2016

Note: Actual official high and low records may vary slightly from our data, if they occured in-between our weather recording intervals... More about our weather records


Bielefeld Weather History for the Previous 24 Hours

Scroll right to see more
Time TempWeatherWind HumidityBarometerVisibility
10:20 PM
Fri, Oct 28
52 °FLight rain. Fog.7 mph94%30.51 "Hg2 mi
9:50 PM52 °FLight rain. Fog.8 mph94%30.51 "Hg1 mi
9:20 PM52 °FLight rain. Fog.8 mph94%30.48 "Hg1 mi
8:50 PM52 °FLight rain. Fog.10 mph94%30.48 "Hg1 mi
8:20 PM52 °FLight rain. Fog.13 mph94%30.48 "Hg1 mi
7:50 PM54 °FLight rain. Fog.13 mph88%30.48 "Hg1 mi
7:20 PM52 °FLight rain. Fog.13 mph94%30.48 "Hg1 mi
6:50 PM52 °FLight rain. Fog.12 mph94%30.48 "Hg1 mi
6:20 PM52 °FLight rain. Fog.10 mph94%30.48 "Hg1 mi
5:50 PM52 °FLight rain. Fog.10 mph94%30.48 "Hg1 mi
5:20 PM54 °FDrizzle. Fog.7 mph88%30.48 "Hg2 mi
4:50 PM52 °FDrizzle. Fog.10 mph94%30.45 "Hg2 mi
4:20 PM54 °FDrizzle. Fog.9 mph88%30.48 "Hg2 mi
3:50 PM54 °FDrizzle. Fog.10 mph88%30.45 "Hg2 mi
3:20 PM54 °FPartly sunny.10 mph82%30.45 "HgN/A
2:50 PM54 °FPartly sunny.10 mph82%30.45 "HgN/A
2:20 PM54 °FPartly sunny.14 mph82%30.45 "HgN/A
1:50 PM54 °FMostly cloudy.12 mph82%30.45 "HgN/A
1:20 PM54 °FOvercast.13 mph77%30.45 "HgN/A
12:50 PM55 °FOvercast.12 mph72%30.45 "HgN/A
12:20 PM54 °FMostly cloudy.14 mph77%30.45 "HgN/A
11:50 AM54 °FMostly cloudy.15 mph82%30.45 "HgN/A
11:20 AM54 °FPartly sunny.15 mph77%30.45 "HgN/A
10:50 AM54 °FPartly sunny.16 mph77%30.45 "HgN/A
10:20 AM54 °FLow clouds.14 mph77%30.45 "HgN/A
9:50 AM54 °FPartly sunny.13 mph77%30.45 "HgN/A
9:20 AM54 °FPartly sunny.14 mph77%30.42 "HgN/A
8:50 AM52 °FPartly sunny.13 mph77%30.42 "HgN/A
8:20 AM54 °FPartly sunny.15 mph72%30.42 "HgN/A
7:50 AM54 °FPassing clouds.10 mph77%30.42 "HgN/A
7:20 AM54 °FPassing clouds.12 mph77%30.42 "HgN/A
6:50 AM54 °FPartly cloudy.14 mph77%30.42 "HgN/A
6:20 AM54 °FPartly cloudy.12 mph77%30.42 "HgN/A
5:50 AM54 °FPassing clouds.12 mph77%30.42 "HgN/A
5:20 AM52 °FPassing clouds.12 mph82%30.42 "HgN/A
4:50 AM54 °FPartly cloudy.13 mph77%30.42 "Hg5 mi
4:20 AM54 °FPartly cloudy.13 mph77%30.42 "HgN/A
3:50 AM52 °FPartly cloudy.10 mph82%30.45 "HgN/A
3:20 AM52 °FPassing clouds.12 mph82%30.45 "HgN/A
2:50 AM52 °FPassing clouds.10 mph82%30.45 "HgN/A
2:20 AM52 °FPassing clouds.9 mph82%30.45 "HgN/A
1:50 AM52 °FPassing clouds.10 mph82%30.45 "HgN/A
1:20 AM52 °FPassing clouds.9 mph82%30.48 "HgN/A
12:50 AM52 °FPassing clouds.12 mph82%30.45 "HgN/A
12:20 AM50 °FPassing clouds.10 mph88%30.45 "HgN/A
11:50 PM
Thu, Oct 27
52 °FPassing clouds.10 mph82%30.45 "HgN/A
11:20 PM50 °FPassing clouds.10 mph82%30.45 "HgN/A
Weather by CustomWeather, © 2016

See weather overviewHow to use our weather pages